Regional Weather Roundup
Issued by NWS

Home | Current Version | Previous Version | Graphics & Text | Print | Product List | Glossary On
Versions: 1 2 3 4 5 6 7 8 9 10 11 12 13 14 15 16 17 18 19 20 21 22 23 24 25 26 27 28 29 30 31 32 33 34 35 36 37 38 39 40 41 42 43 44 45 46 47 48 49 50
000
ASUS43 KMPX 022201
RWRMN
WEATHER ROUNDUP FOR MINNESOTA
NATIONAL WEATHER SERVICE TWIN CITIES/CHANHASSEN MN
400 PM CST MON MAR 02 2015


NOTE: "FAIR" INDICATES FEW OR NO CLOUDS BELOW 12,000 FEET WITH NO
SIGNIFICANT WEATHER AND/OR OBSTRUCTIONS TO VISIBILITY. N/A MEANS
CURRENT SKY AND/OR WEATHER CONDITIONS ARE NOT AVAILABLE.

MNZ060>063-068>070-022300-
   Twin Cities Metro

CITY           SKY/WX    TMP DP  RH WIND       PRES   REMARKS
TWIN CITIES    PTSUNNY   25   4  40 S10       30.29F WCI  15
ST PAUL        MOSUNNY   26   8  46 SE10      30.32F WCI  16
CRYSTAL        MOSUNNY   29   5  36 SE10      30.27F WCI  20
LAKEVILLE      MOSUNNY   21  10  63 SE7       30.30F WCI  13
EDEN PRAIRIE   PTSUNNY   25   6  44 S9        30.27F WCI  15
SOUTH ST PAUL  MOSUNNY   26   9  49 S8        30.30F WCI  17
LAKE ELMO      FAIR      27  10  50 S9        30.31F WCI  17
$$
MNZ001>005-007-008-013>017-022>024-027-028-022300-
   Northwest Minnesota

CITY           SKY/WX    TMP DP  RH WIND       PRES   REMARKS
BEMIDJI        SUNNY     26   8  45 S15       30.08F WCI  14
HALLOCK        SUNNY     25  18  74 SE22      29.97F WCI  10
ROSEAU         SUNNY     25  12  58 S16G22    30.03F WCI  12
WARROAD        SUNNY     27   9  46 S9G21     30.05F WCI  17
THIEF RVR FALL SUNNY     25  12  58 SE16G23   30.02F WCI  12
CROOKSTON      SUNNY     28  18  64 S24       30.02F WCI  14
FOSSTON        SUNNY     30  12  47 SE15      30.04F WCI  19
DETROIT LAKES  SUNNY     27  14  59 S18G28    30.07F WCI  13
MOORHEAD       PTSUNNY   30  16  55 S23       30.04F WCI  17
PARK RAPIDS    SUNNY     27  10  49 S14       30.09F WCI  16
MAHNOMEN       FAIR      27  13  54 S17       30.05F WCI  14
$$
MNZ006-009>011-018-025>026-022300-
   North Central Minnesota

CITY           SKY/WX    TMP DP  RH WIND       PRES   REMARKS
BAUDETTE       SUNNY     25   7  46 S15       30.06F WCI  13
FLAG ISLAND    SUNNY     23   9  54 S16G23    30.04F WCI  10
INTL FALLS     SUNNY     27   7  42 S8G21     30.09F WCI  19
WASKISH        SUNNY     30   9  40 S8G16     30.09F WCI  23
BIG FORK       SUNNY     27   7  43 S17       30.12F WCI  14
LONGVILLE      SUNNY     27   7  43 S17       30.14F WCI  14
GRAND RAPIDS   SUNNY     27   7  43 S10G22    30.14F WCI  17
CRANE LAKE     SUNNY     27   3  36 S8        30.14F WCI  18
ORR            SUNNY     28   3  34 S10       30.10F WCI  19
COOK           SUNNY     27   7  43 S10G18    30.14F WCI  17
WALKER         FAIR      27   5  38 S14       30.12F WCI  15
$$
MNZ012-019>021-037-022300-
   Northeast Minnesota

CITY           SKY/WX    TMP DP  RH WIND       PRES   REMARKS
DULUTH         SUNNY     27   5  39 SW13      30.18F WCI  16
ELY            SUNNY     25   1  36 S9        30.14F WCI  15
HIBBING        SUNNY     27   3  35 S9        30.15F WCI  18
EVELETH        SUNNY     27   5  39 S14G20    30.16F WCI  15
DULUTH HARBOR  SUNNY     28   7  40 S9        30.25F WCI  20
TWO HARBORS    SUNNY     28  10  47 S14G21    30.20F WCI  17
SILVER BAY     SUNNY     27   9  46 S13G20    30.19F WCI  16
GRAND MARAIS     N/A     26  16  65 SW12      30.24F WCI  16
G MARAIS ARPRT SUNNY     19   9  63 S8        30.16F WCI   9
$$
MNZ029>031-032-039>041-046>048-054>057-064-022300-
   West Central Minnesota

CITY           SKY/WX    TMP DP  RH WIND       PRES   REMARKS
FERGUS FALLS   CLOUDY    27  12  54 S22       30.12F WCI  12
WHEATON        PTSUNNY   27  18  69 SE21G29   30.09F WCI  13
MORRIS         PTSUNNY   28  16  59 SE23      30.10F WCI  14
ALEXANDRIA     CLOUDY    26  13  57 S16       30.13F WCI  14
ELBOW LAKE     CLOUDY    27  17  65 SE20G29   30.09F WCI  13
WADENA         SUNNY     25  10  54 S18       30.11F WCI  11
GLENWOOD       CLOUDY    27  12  54 SE16      30.14F WCI  14
APPLETON       MOSUNNY   30  16  55 S17G23    30.13F WCI  18
BENSON         CLOUDY    30  12  47 S20G25    30.14F WCI  18
ORTONVILLE     PTSUNNY   28  16  59 SE17G25   30.10F WCI  16
MADISON        PTSUNNY   30  18  59 S22       30.12F WCI  17
WILLMAR        FAIR      28  14  54 SE15G23   30.20F WCI  17
$$
MNZ033>034-036-042>043-049>051-058-059-022300-
   Central Minnesota

CITY           SKY/WX    TMP DP  RH WIND       PRES   REMARKS
ST CLOUD       SUNNY     27  10  49 S15       30.22F WCI  15
SAUK CENTRE    CLOUDY    27  12  53 SE18      30.16F WCI  14
PAYNESVILLE    CLOUDY    25  11  57 E13       30.19F WCI  13
AITKIN         SUNNY     28   7  40 S12G21    30.18F WCI  18
PINE RIVER     SUNNY     27  10  50 S13G18    30.17F WCI  16
BRAINERD       SUNNY     26   7  44 S16G24    30.17F WCI  14
STAPLES        MOSUNNY   27   9  46 S16       30.14F WCI  14
LONG PRAIRIE   PTSUNNY   27  14  59 SE16      30.16F WCI  14
LITTLE FALLS   SUNNY     28   9  43 S10       30.19F WCI  19
LITCHFIELD     CLOUDY    27  12  54 SE9       30.22F WCI  17
BUFFALO        SUNNY     26  10  50 SE9       30.26F WCI  17
MAPLE LAKE     SUNNY     28  13  53 SE7       30.25F WCI  21
$$
MNZ037-044-045-052-053-022300-
   East Central Minnesota

CITY           SKY/WX    TMP DP  RH WIND       PRES   REMARKS
PRINCETON      SUNNY     28  10  47 S13       30.25F WCI  18
MORA           SUNNY     27   9  46 S9        30.25F WCI  17
RUSH CITY      SUNNY     27   7  41 S8        30.26F WCI  19
MOOSE LAKE     SUNNY     28   9  43 CALM      30.21F
HINCKLEY       FAIR      28   9  43 S13       30.25F WCI  18
CLOQUET        SUNNY     25   1  36 S12       30.20F WCI  14
MCGREGOR       SUNNY     28   9  43 S13       30.19F WCI  18
$$
MNZ071>073-080-081-089-090-097-098-022300-
   Southwest Minnesota

CITY           SKY/WX    TMP DP  RH WIND       PRES   REMARKS
MONTEVIDEO     MOSUNNY   28  18  64 S17       30.16F WCI  16
GRANITE FALLS  CLOUDY    28  17  63 SE20G25   30.19F WCI  15
CANBY          CLOUDY    29  17  59 S14G25    30.13F WCI  19
MARSHALL       CLOUDY    27  16  63 S16       30.16F WCI  14
REDWOOD FALLS  CLOUDY    26  15  63 S20       30.21F WCI  12
OLIVIA         PTSUNNY   28  19  69 SE13G20   30.20F WCI  18
PIPESTONE      CLOUDY    27  18  69 S15       30.11F WCI  15
WINDOM         PTSUNNY   25  18  74 SE15      30.20F WCI  12
WORTHINGTON    CLOUDY    25  16  68 SE13      30.18F WCI  13
JACKSON        CLOUDY    27  19  74 SE14      30.20F WCI  15
TRACY          CLOUDY    27  18  68 S13G20    30.16F WCI  16
SLAYTON        CLOUDY    25  16  67 SE15      30.15F WCI  13
$$
MNZ065>067-074>077-082>085-091>093-022300-
   South Central Minnesota

CITY           SKY/WX    TMP DP  RH WIND       PRES   REMARKS
MANKATO        PTSUNNY   25  10  54 S12       30.27F WCI  14
NEW ULM        PTSUNNY   25  16  68 S14       30.24F WCI  13
ST JAMES       PTSUNNY   27  18  69 SE13      30.26F WCI  16
FAIRMONT       CLOUDY    25  16  68 SE13      30.24F WCI  13
GLENCOE        CLOUDY    27  14  58 SE8       30.24F WCI  18
FARIBAULT      PTSUNNY   23  10  58 SE9       30.29F WCI  13
OWATONNA       MOSUNNY   21  12  68 SE9       30.28F WCI  11
WASECA         PTSUNNY   23  12  63 S9        30.30F WCI  13
ALBERT LEA     PTSUNNY   21  14  73 SE12      30.28F WCI   9
$$
MNZ078>079-086>088-094>096-022300-
   Southeast Minnesota

CITY           SKY/WX    TMP DP  RH WIND       PRES   REMARKS
ROCHESTER      PTSUNNY   19   9  65 S8        30.30F WCI   9
RED WING       MOSUNNY   25   3  39 S5        30.32F WCI  19
STANTON        MOSUNNY   24  10  54 S8        30.30F WCI  15
DODGE CENTER   MOSUNNY   19  12  73 S9        30.29F WCI   9
WINONA         PTSUNNY   28   5  37 S3        30.37F
AUSTIN         PTSUNNY   19  10  68 SE6       30.29F WCI  11
PRESTON        CLOUDY    19   9  64 S7        30.32F WCI  10
$$
ABBREVIATIONS USED IN REMARKS
   TC - TEMPERATURES IN CELSIUS
  WCI - WIND CHILL INDEX
   HX - HEAT INDEX
  VSB - VISIBILITY
$$


USA.gov is the U.S. government's official web portal to all federal, state and local government web resources and services.